Flag for U.S.A. Weather past 2 weeks in Cheyenne, Wyoming, U.S.A.

Now
35 °F

Clear.


Feels Like: 27 °F
Forecast: 34 / 49 °F
Wind: 12 mph from Northwest

Location: Cheyenne Airport

Current Time: Jan 25, 2015 at 5:27:39 AM

Latest Report: Jan 25, 2015 at 4:53 AM


Visibility: 10 mi

Pressure: 30.13 "Hg

Humidity: 61%

Dew point: 23 °F

Location of CheyenneLocation

Historic Weather in Cheyenne — Graph

°F

Cheyenne temperature yesterday

Maximum temperature yesterday: 47 °F (at 12:53 PM)
Minimum temperature yesterday: 31 °F (at 3:53 AM)
Average temperature yesterday: 39 °F

Past Weeks' High & Low Weather Summary

 TemperatureHumidityPressure
High53 °F (Jan 15, 12:53 PM)93% (Jan 11, 6:53 PM)30.47 "Hg (Jan 11, 6:53 PM)
Low7 °F (Jan 22, 3:53 AM)12% (Jan 22, 1:53 PM)29.76 "Hg (Jan 16, 1:53 PM)
Average33 °F52%30.15 "Hg
* Reported Jan 10 3:53 AM — Jan 25 3:53 AM, Cheyenne, Weather by CustomWeather, © 2014

Note: Actual official high and low records may vary slightly from our data, if they occured in-between our weather recording intervals... More about our weather records

Advertising

Cheyenne weather history for previous 24 hours

 ConditionsComfort  
Time TempWeatherWind HumidityBarometerVisibility
3:53 AM
Jan 25
34 °FClear.10 mph67%30.10 "Hg10 mi
2:53 AM36 °FPassing clouds.18 mph64%30.09 "Hg10 mi
1:53 AM36 °FClear.16 mph64%30.07 "Hg10 mi
12:53 AM36 °FClear.14 mph64%30.06 "Hg10 mi
11:53 PM
Jan 24
38 °FOvercast.20 mph63%30.07 "Hg10 mi
10:53 PM39 °FMostly cloudy.22 mph57%30.08 "Hg10 mi
9:53 PM39 °FOvercast.14 mph57%30.08 "Hg10 mi
8:53 PM34 °FOvercast.12 mph76%30.10 "Hg10 mi
7:53 PM39 °FPassing clouds.15 mph55%30.09 "Hg10 mi
6:53 PM39 °FPassing clouds.18 mph53%30.06 "Hg10 mi
5:53 PM39 °FClear.16 mph53%30.05 "Hg10 mi
4:53 PM38 °FLight snow. Mostly cloudy.21 mph65%30.06 "Hg6 mi
3:53 PM43 °FMostly cloudy.20 mph43%30.02 "Hg10 mi
2:53 PM44 °FMostly cloudy.32 mph38%29.98 "Hg10 mi
1:53 PM46 °FOvercast.18 mph33%29.96 "Hg10 mi
12:53 PM47 °FPassing clouds.23 mph29%29.96 "Hg10 mi
11:53 AM46 °FSunny.28 mph27%29.98 "Hg10 mi
10:53 AM45 °FSunny.21 mph26%30.01 "Hg10 mi
9:53 AM45 °FSunny.24 mph25%30.01 "Hg10 mi
8:53 AM41 °FScattered clouds.12 mph28%30.04 "Hg10 mi
7:53 AM39 °FScattered clouds.14 mph30%30.06 "Hg10 mi
6:53 AM38 °FClear.21 mph31%30.08 "Hg10 mi
5:53 AM35 °FClear.28 mph38%30.06 "Hg10 mi
Weather by CustomWeather, © 2014

See weather overviewHow to use our weather pages